Flag for U.S.A. Weather past 2 weeks in Augusta, Georgia, U.S.A.

Now
79 °F

Clear.


Feels Like: 82 °F
Forecast: 75 / 92 °F
Wind: No wind

Location: Daniel Field

Current Time: Aug 1, 2015 at 5:59:31 AM

Latest Report: Aug 1, 2015 at 4:53 AM


Visibility: 10 mi

Pressure: 29.90 "Hg

Humidity: 79%

Dew point: 72 °F

Location of AugustaLocation

Historic Weather in Augusta — Graph

°F

Augusta temperature yesterday

Maximum temperature yesterday: 94 °F (at 5:53 PM)
Minimum temperature yesterday: 79 °F (at 4:53 AM)
Average temperature yesterday: 85 °F

Past Weeks' High & Low Weather Summary

 TemperatureHumidityPressure
High102 °F (Jul 21, 4:53 PM)94% (Jul 18, 6:53 AM)30.06 "Hg (Jul 18, 6:53 AM)
Low73 °F (Jul 26, 6:53 AM)29% (Jul 22, 3:53 PM)29.75 "Hg (Jul 21, 4:53 PM)
Average86 °F62%29.93 "Hg
* Reported Jul 17 4:53 AM — Aug 1 4:53 AM, Augusta, Weather by CustomWeather, © 2015

Note: Actual official high and low records may vary slightly from our data, if they occured in-between our weather recording intervals... More about our weather records

Advertising

Augusta weather history for previous 24 hours

 ConditionsComfort  
Time TempWeatherWind HumidityBarometerVisibility
4:53 AM
Sat, Aug 1
79 °FClear.No wind79%29.90 "Hg10 mi
3:53 AM78 °FClear.No wind82%29.90 "Hg10 mi
2:53 AM78 °FClear.3 mph84%29.90 "Hg10 mi
1:53 AM78 °FClear.No wind84%29.93 "Hg10 mi
12:53 AM79 °FPassing clouds.6 mph82%29.94 "Hg10 mi
11:53 PM
Fri, Jul 31
79 °FPassing clouds.No wind79%29.93 "Hg10 mi
10:53 PM81 °FClear.6 mph74%29.95 "Hg10 mi
9:53 PM83 °FClear.6 mph70%29.92 "Hg10 mi
8:53 PM84 °FPassing clouds.7 mph67%29.90 "Hg10 mi
7:53 PM86 °FPassing clouds.5 mph63%29.88 "Hg10 mi
6:53 PM88 °FSunny.7 mph61%29.88 "Hg10 mi
5:53 PM94 °FScattered clouds.8 mph44%29.88 "Hg10 mi
4:53 PM93 °FPassing clouds.5 mph42%29.87 "Hg10 mi
3:53 PM93 °FSunny.N/A42%29.88 "Hg10 mi
2:53 PM92 °FSunny.8 mph44%29.91 "Hg10 mi
1:53 PM92 °FSunny.12 mph43%29.93 "Hg10 mi
12:53 PM90 °FSunny.8 mph45%29.96 "Hg10 mi
11:53 AM89 °FPassing clouds.9 mph45%29.97 "Hg10 mi
10:53 AM87 °FSunny.12 mph48%29.96 "Hg10 mi
9:53 AM85 °FScattered clouds.12 mph59%29.95 "Hg10 mi
8:53 AM83 °FScattered clouds.10 mph70%29.95 "Hg10 mi
7:53 AM80 °FSunny.5 mph81%29.93 "Hg10 mi
6:53 AM79 °FClear.3 mph82%29.91 "Hg10 mi
5:53 AM79 °FClear.No wind82%29.89 "Hg10 mi
Weather by CustomWeather, © 2015

See weather overviewHow to use our weather pages